Temp
-1 -1 -0 0 0 1 1 1 0 -1 -1 -1 -1 -1 -1 -1 -1 -1 -1 -1 -1 -0 -0 0 0 0 1
-2 -1 -1 -1 -0 -0 -0 -0 -0 -1 -1 -1 -1 -1 -1 -2 -1 -1 -1 -1 -1 -1 -1 -1 -1 -0 -0
-1 -1 -1 -1 -1 -1 -1 -1 -1 -1 -1 -1 -2 -1 -1 -1 -1 -1 -1 -2 -2 -2 -2 -2 -1 -1 -1
-1 -1 -2 -2 -1 -1 -2 -2 -2 -2 -2 -2 -2 -2 -1 -1 -2 -2 -2 -2 -2 -2 -2 -2 -2 -2 -2
-1 -2 -2 -2 -2 -2 -2 -2 -2 -2 -2 -2 -2 -2 -2 -2 -2 -3 -3 -3 -2 -2 -2 -2 -2 -2 -2
-1 -2 -2 -2 -3 -3 -3 -3 -3 -3 -3 -2 -3 -3 -3 -3 -3 -4 -3 -3 -3 -3 -2 -2 -3 -3 -3
-1 -2 -3 -3 -3 -3 -3 -4 -4 -4 -4 -4 -4 -4 -4 -4 -4 -4 -4 -4 -4 -4 -4 -3 -3 -3 -3
-2 -2 -3 -3 -4 -4 -4 -4 -4 -4 -5 -5 -5 -5 -5 -4 -4 -5 -5 -5 -5 -5 -4 -4 -4 -4 -4
-3 -4 -4 -4 -4 -5 -5 -5 -5 -5 -5 -6 -6 -6 -5 -5 -5 -5 -5 -5 -5 -5 -5 -5 -5 -5 -5
-4 -4 -4 -5 -5 -5 -5 -5 -6 -6 -6 -6 -6 -6 -6 -6 -6 -5 -5 -5 -6 -6 -6 -6 -6 -6 -6
-5 -5 -5 -5 -5 -6 -6 -6 -6 -6 -6 -7 -7 -7 -7 -7 -8 -7 -7 -7 -7 -7 -6 -7 -7 -6 -7
-5 -5 -6 -6 -6 -6 -7 -7 -7 -7 -7 -7 -8 -8 -8 -9 -9 -8 -8 -8 -8 -7 -7 -7 -7 -7 -7
-6 -6 -6 -7 -7 -7 -7 -8 -8 -8 -8 -8 -8 -9 -9 -9 -10 -9 -10 -8 -8 -8 -8 -8 -8 -8 -8
-6 -6 -7 -7 -7 -8 -8 -8 -8 -8 -8 -8 -9 -10 -10 -10 -10 -10 -9 -10 -8 -8 -9 -9 -9 -8 -8
-7 -7 -7 -8 -8 -8 -9 -9 -10 -10 -9 -8 -9 -10 -10 -10 -10 -9 -9 -10 -9 -10 -10 -10 -10 -9 -9
-7 -7 -8 -8 -8 -9 -9 -10 -10 -10 -10 -10 -10 -11 -11 -10 -10 -10 -10 -10 -10 -10 -10 -11 -11 -10 -10
-7 -7 -8 -8 -9 -9 -10 -10 -11 -11 -11 -11 -11 -12 -14 -14 -12 -10 -11 -11 -11 -11 -11 -12 -12 -11 -11
Height
932 935 938 940 941 942 943 944 944 945 945 944 944 943 943 943 942 941 940 939 939 937 936 936 935 933 932
930 934 937 939 941 942 943 944 945 945 945 945 945 944 944 943 942 941 940 939 938 937 936 935 933 932 930
927 932 936 939 941 942 944 944 945 945 944 944 944 943 943 942 941 940 939 938 938 937 935 934 932 931 930
926 931 935 938 940 942 943 944 944 944 944 944 944 943 942 940 940 939 939 937 936 936 935 934 931 929 928
926 930 934 937 939 941 942 943 943 944 944 944 943 942 941 939 938 938 938 936 935 935 934 932 931 929 927
926 929 933 935 938 940 940 941 943 944 942 943 941 939 939 937 937 935 936 935 933 932 932 930 929 928 925
925 929 932 934 936 938 940 940 941 942 941 940 940 938 937 936 934 933 933 933 932 931 929 928 927 925 922
926 928 931 933 935 937 938 940 940 940 940 939 938 937 934 933 932 932 931 931 930 928 927 925 923 921 919
926 929 931 934 935 936 937 938 938 938 937 937 937 933 931 930 930 930 929 928 927 925 923 921 920 917 914
927 928 931 932 933 934 935 935 936 936 936 937 935 933 931 928 928 928 926 925 923 921 919 917 915 912 909
925 927 930 931 931 932 933 933 934 935 935 934 932 932 932 928 924 923 922 920 919 916 915 912 910 909 905
924 926 928 928 929 930 931 932 932 932 932 931 930 929 927 924 921 919 917 915 913 911 909 908 906 903 901
922 924 925 925 926 928 929 930 929 929 928 927 926 924 923 920 917 914 912 908 907 906 905 902 900 897 894
920 921 922 923 924 926 926 926 924 923 923 922 921 919 916 915 914 910 909 908 904 901 899 896 894 892 890
916 918 919 920 921 922 921 920 919 918 916 917 916 914 912 910 907 905 903 901 899 897 894 891 889 887 884
913 914 916 917 917 917 916 915 914 913 912 911 910 908 905 903 902 900 898 897 895 892 890 886 881 880 878
908 910 911 912 911 911 910 910 909 908 908 907 906 905 903 900 898 898 894 892 890 886 884 881 876 872 871
Wind_Speed
11 12 9 7 6 5 5 5 6 8 8 9 9 8 9 9 9 8 8 9 10 10 10 10 11 12 13
17 12 10 7 6 6 6 6 5 6 8 8 8 9 8 8 8 8 8 8 8 9 10 11 11 12 13
17 15 12 8 8 7 6 4 3 3 3 4 4 5 6 7 9 8 7 8 8 9 9 10 11 12 13
20 16 12 9 8 7 5 3 3 2 1 3 6 8 8 9 8 7 8 8 8 8 9 10 10 12 12
17 14 12 10 7 5 3 2 1 0 3 6 9 9 9 8 7 8 8 9 9 8 9 10 10 12 12
15 14 11 9 7 4 2 2 1 2 10 11 9 8 9 9 9 8 9 9 9 9 11 12 11 13 12
14 12 11 8 5 4 1 1 2 6 11 9 9 8 9 12 11 8 6 7 8 10 11 12 13 14 15
9 9 7 7 4 3 0 3 6 8 6 5 9 8 18 13 5 3 6 9 13 14 14 15 16 17 19
9 8 6 4 2 1 3 5 6 4 8 5 4 17 16 6 4 7 7 15 18 15 15 16 18 19 20
8 6 4 3 4 5 5 4 3 3 1 5 9 10 7 6 1 7 17 23 18 20 20 19 19 20 20
6 5 3 4 5 6 6 5 6 6 7 8 6 12 6 13 14 20 16 19 26 26 22 18 14 16 22
5 4 5 4 4 3 4 5 6 8 10 11 11 13 15 17 15 16 24 29 24 25 18 15 22 20 19
8 7 6 5 5 5 7 9 11 13 15 16 17 18 18 19 21 25 20 26 21 10 23 22 21 21 23
9 7 8 7 7 10 12 14 17 18 15 14 14 16 19 19 20 25 25 17 24 21 22 23 21 20 20
11 11 11 11 11 12 14 15 16 18 20 17 15 15 17 19 22 23 22 19 18 22 20 24 26 28 29
14 15 15 15 15 15 15 16 17 19 21 20 18 18 19 17 15 16 16 19 20 21 27 26 26 26 26
18 18 18 18 17 17 17 18 20 21 20 19 19 16 11 4 12 16 16 17 26 28 26 24 26 30 28
Wind_Direction
147 155 148 140 128 114 101 93 88 65 60 60 56 51 46 39 32 22 13 8 6 5 7 4 0 359 357
150 152 152 144 134 121 105 104 106 72 62 62 58 54 46 28 11 2 1 357 1 3 360 359 356 354 352
150 151 143 147 139 128 120 110 84 104 86 60 45 20 2 350 343 343 350 352 349 349 352 352 351 350 347
143 144 140 140 144 141 124 94 95 120 82 3 353 344 337 333 338 346 347 345 335 331 334 336 343 347 344
138 143 144 147 151 132 115 72 116 53 326 327 329 331 329 332 334 333 341 340 341 332 325 334 331 335 334
143 146 147 144 141 131 103 53 37 325 330 332 336 340 334 335 325 336 337 336 337 327 324 321 322 325 325
150 149 147 153 154 140 120 11 317 327 328 319 331 335 339 338 324 325 347 359 357 349 338 332 324 320 317
135 137 141 145 150 151 224 308 309 316 318 289 318 319 328 330 316 92 34 6 350 337 325 319 312 310 309
122 129 124 125 155 219 292 299 313 306 316 277 312 332 334 338 297 208 306 333 334 333 326 318 314 312 305
145 148 161 194 260 280 282 284 288 313 356 328 313 340 328 313 260 279 291 306 319 322 320 316 314 312 314
166 181 213 254 273 270 267 267 265 256 279 310 288 304 273 289 292 305 311 312 314 315 317 316 318 316 313
191 221 252 259 241 252 266 270 274 277 282 287 287 291 292 292 292 299 301 309 313 313 315 311 310 308 306
230 243 256 262 252 260 270 279 282 284 285 285 284 285 282 284 289 300 308 310 315 309 309 311 312 313 312
247 254 261 243 261 275 281 289 293 296 293 291 288 288 289 286 289 292 298 292 301 312 316 313 313 313 310
246 256 245 246 268 279 285 289 290 296 301 304 301 294 288 290 286 289 294 297 304 311 310 307 306 305 303
254 253 249 253 271 278 282 286 288 292 297 304 307 310 307 300 282 283 293 296 302 299 303 303 301 307 305
253 251 253 261 266 274 282 284 284 288 290 295 299 298 293 269 281 290 281 286 298 304 306 300 293 299 304